Location: Niverville
(49.6028°N, 97.0419°W)
Time: 03:58:30
(UTC-06:00)

Amateur Radio Satellites - All Passes

Search period start: 11 December 2016 03:28
Search period end: 12 December 2016 03:28
Location: Niverville, 49.6028°N, 97.0419°W

Satellite Date Start Highest point End Downlink Frequencies (MHz)
Time Altitude Azimuth
KKS-1 11 Dec 03:31:13 03:35:40 69° 72° (ENE) 03:40:10 437.445
MOZHAYETS 4 11 Dec 03:42:14 03:46:38 46° 261° (W) 03:51:03
CUBESAT XI-V 11 Dec 03:59:58 04:04:22 48° 69° (ENE) 04:08:49 437.345
AO-85 11 Dec 04:00:13 04:03:12 17° 335° (NNW) 04:06:04 145.980
ITAMSAT 1 11 Dec 04:01:57 04:07:10 85° 287° (WNW) 04:12:20 435.822/435.867
ITUPSAT 1 11 Dec 04:02:05 04:02:56 10° 275° (W) 04:03:47 437.325
Gurwin Techsat 1B 11 Dec 04:03:07 04:07:28 26° 300° (WNW) 04:11:49 435.225
BEESAT 2 11 Dec 04:03:36 04:06:31 20° 115° (ESE) 04:09:27 435.950
Cosmos 2504 11 Dec 04:24:23 04:29:49 17° 48° (NE) 04:35:06 435.465 / 435.565
HORYU 2 11 Dec 04:34:40 04:35:23 10° 86° (E) 04:36:06 437.375
BRITE-PL 11 Dec 04:40:02 04:44:28 24° 90° (E) 04:48:57 437.365/2234.400
YUBILEINY 11 Dec 04:53:55 05:02:11 41° 67° (ENE) 05:10:24 435.215
STARS 11 Dec 04:58:12 05:02:17 36° 263° (W) 05:06:25 437.465
BEESAT 3 11 Dec 04:58:31 05:02:25 67° 312° (NW) 05:06:23 437.485
SO-50 11 Dec 05:02:55 05:05:28 15° 249° (WSW) 05:08:00 436.795
STRAND 1 11 Dec 05:04:17 05:06:58 14° 53° (NE) 05:09:38 437.568
KKS-1 11 Dec 05:10:00 05:12:43 16° 271° (W) 05:15:27 437.445
AIST 1 11 Dec 05:15:39 05:18:43 18° 65° (ENE) 05:21:45
AO-7 11 Dec 05:16:15 05:24:32 66° 297° (WNW) 05:32:47 29.400- 29.500
GOMX 1 11 Dec 05:24:53 05:29:29 26° 91° (E) 05:34:00 467.674
Cosmos 2491 11 Dec 05:31:12 05:38:13 28° 79° (E) 05:45:11 435.465 / 435.565
LilacSat-2 11 Dec 05:36:27 05:38:06 12° 88° (E) 05:39:45 437.200
NOAA 18 11 Dec 05:38:13 05:38:39 10° 83° (E) 05:39:05 137.9125
CUBESAT XI-V 11 Dec 05:38:21 05:41:59 23° 268° (W) 05:45:40 437.345
BEESAT 2 11 Dec 05:40:04 05:43:58 56° 314° (NW) 05:47:56 435.950
ITAMSAT 1 11 Dec 05:42:47 05:45:54 16° 306° (NW) 05:49:00 435.822/435.867
AO-85 11 Dec 05:44:38 05:45:22 10° 360° (N) 05:46:05 145.980
HORYU 2 11 Dec 06:08:12 06:12:40 83° 104° (ESE) 06:17:05 437.375
RS-15 11 Dec 06:13:12 06:23:46 40° 108° (ESE) 06:34:42 29.354- 29.394
Cosmos 2504 11 Dec 06:16:43 06:25:27 61° 74° (ENE) 06:33:38 435.465 / 435.565
CUTE-I 11 Dec 06:17:12 06:22:03 34° 96° (E) 06:26:52 437.470
BRITE-PL 11 Dec 06:17:51 06:23:18 64° 288° (WNW) 06:28:55 437.365/2234.400
NOAA 15 11 Dec 06:21:05 06:26:03 40° 97° (E) 06:31:00 137.62
BEESAT 3 11 Dec 06:38:14 06:40:47 16° 333° (NNW) 06:43:20 437.485
STRAND 1 11 Dec 06:40:12 06:45:20 76° 72° (ENE) 06:50:28 437.568
DOVE 4 11 Dec 06:43:36 06:48:48 53° 99° (E) 06:53:47 437.250
Cubesat XI-IV 11 Dec 06:44:52 06:50:08 57° 101° (E) 06:55:22 437.490
YUBILEINY 11 Dec 06:50:47 06:59:19 56° 270° (W) 07:07:51 435.215
AIST 1 11 Dec 06:52:22 06:56:43 57° 265° (W) 07:01:01
GOMX 1 11 Dec 07:02:27 07:07:51 56° 290° (WNW) 07:13:11 467.674
LilacSat-2 11 Dec 07:09:05 07:12:50 63° 286° (WNW) 07:16:33 437.200
AO-7 11 Dec 07:10:03 07:15:52 22° 320° (NW) 07:21:43 29.400- 29.500
NOAA 18 11 Dec 07:14:54 07:20:26 64° 103° (ESE) 07:25:53 137.9125
HO-68 11 Dec 07:18:45 07:24:45 27° 92° (E) 07:30:42 435.675
BEESAT 2 11 Dec 07:20:12 07:22:36 15° 336° (NNW) 07:25:01 435.950
AIST 2 11 Dec 07:20:18 07:24:17 52° 124° (ESE) 07:28:22 435.215
CINEMA 3 11 Dec 07:20:21 07:24:37 32° 94° (E) 07:28:41 145.822/145.860
AO-85 11 Dec 07:24:44 07:27:30 17° 25° (NNE) 07:30:10 145.980
CUTE 1.7 + AOD 2 11 Dec 07:24:57 07:28:10 21° 92° (E) 07:31:22 437.475
Cosmos 2491 11 Dec 07:25:24 07:34:11 77° 282° (WNW) 07:42:59 435.465 / 435.565
PRISM 11 Dec 07:29:55 07:32:47 19° 60° (ENE) 07:35:39 437.425
CANX-2 11 Dec 07:43:44 07:47:39 35° 96° (E) 07:51:33 2200.000
HORYU 2 11 Dec 07:46:08 07:48:37 15° 304° (WNW) 07:51:06 437.375
COMPASS 1 11 Dec 07:56:30 07:59:41 21° 92° (E) 08:02:51 437.405
SEEDS 11 Dec 07:56:59 08:00:41 30° 95° (E) 08:04:24 437.485
CUTE-I 11 Dec 07:57:13 08:02:11 40° 295° (WNW) 08:07:06 437.470
BRITE-PL 11 Dec 07:58:13 08:00:50 14° 307° (NW) 08:03:29 437.365/2234.400
NOAA 15 11 Dec 08:01:01 08:05:47 35° 297° (WNW) 08:10:33 137.62
Cosmos 2504 11 Dec 08:10:41 08:18:26 37° 277° (W) 08:25:46 435.465 / 435.565
UNISAT 6 11 Dec 08:13:37 08:16:22 16° 58° (ENE) 08:19:05 437.425
DOVE 4 11 Dec 08:21:46 08:26:10 27° 298° (WNW) 08:30:26 437.250
STRAND 1 11 Dec 08:21:47 08:25:06 17° 271° (W) 08:28:26 437.568
RS-15 11 Dec 08:23:25 08:35:24 78° 314° (NW) 08:47:52 29.354- 29.394
Cubesat XI-IV 11 Dec 08:25:32 08:29:54 26° 300° (WNW) 08:34:15 437.490
Oscar 11 11 Dec 08:25:36 08:27:55 14° 88° (E) 08:30:13 145.826/435.025
CUBEBUG 2 11 Dec 08:35:35 08:39:47 44° 98° (E) 08:43:50 437.445
TIGRISAT 11 Dec 08:40:31 08:44:15 24° 63° (ENE) 08:47:56 435.000
GOMX 1 11 Dec 08:42:49 08:44:48 12° 309° (NW) 08:46:49 467.674
ANTELSAT 11 Dec 08:43:23 08:47:15 27° 64° (ENE) 08:51:05 437.575/2403.000
YUBILEINY 11 Dec 08:50:50 08:54:01 12° 293° (WNW) 08:57:13 435.215
AAUSAT CUBESAT 2 11 Dec 08:54:57 08:59:05 63° 101° (E) 09:03:14 437.432
NOAA 18 11 Dec 08:56:15 09:00:41 25° 302° (WNW) 09:05:06 137.9125
CINEMA 3 11 Dec 08:57:26 09:01:47 35° 294° (WNW) 09:05:57 145.822/145.860
AIST 2 11 Dec 08:59:24 09:03:01 28° 324° (NW) 09:06:41 435.215
Cosmos 2499 11 Dec 08:59:37 09:04:17 15° 45° (NE) 09:08:48 435.465 / 435.565
CUTE 1.7 + AOD 2 11 Dec 09:00:11 09:04:14 45° 290° (WNW) 09:08:16 437.475
DELFI C3 11 Dec 09:03:42 09:05:22 12° 88° (E) 09:07:00 145.870
PRISM 11 Dec 09:03:43 09:07:42 53° 259° (WSW) 09:11:46 437.425
AO-85 11 Dec 09:04:37 09:08:41 69° 48° (NE) 09:12:34 145.980
UWE-3 11 Dec 09:05:31 09:09:47 59° 101° (E) 09:13:53 435.000/436.395/437.385
HO-68 11 Dec 09:05:54 09:13:06 72° 292° (WNW) 09:20:15 435.675
CANX-2 11 Dec 09:19:50 09:23:24 27° 295° (WNW) 09:26:58 2200.000
QB50P2 11 Dec 09:24:34 09:25:10 10° 54° (NE) 09:25:46 145.880/145.840
Cosmos 2491 11 Dec 09:26:21 09:32:43 22° 307° (NW) 09:39:05 435.465 / 435.565
COMPASS 1 11 Dec 09:31:28 09:35:26 44° 290° (WNW) 09:39:25 437.405
SEEDS 11 Dec 09:32:40 09:36:22 31° 293° (WNW) 09:40:06 437.485
GONETS M04 11 Dec 09:32:46 09:39:06 21° 53° (NE) 09:45:24
ZACube-1 11 Dec 09:33:09 09:37:24 71° 103° (ESE) 09:41:32 437.345
JAS-2 11 Dec 09:33:19 09:37:58 25° 60° (ENE) 09:42:19 435.910
QB50P1 11 Dec 09:34:47 09:36:28 12° 56° (NE) 09:38:10 145.935-145.965
FUNcube-1 11 Dec 09:37:22 09:41:36 72° 103° (ESE) 09:45:43 145.935
UNISAT 6 11 Dec 09:47:50 09:52:31 82° 258° (WSW) 09:57:07 437.425
CUSAT 1 11 Dec 09:49:07 09:51:34 31° 287° (WNW) 09:53:58 437.405
DANDE 11 Dec 09:50:31 09:54:00 43° 99° (E) 09:56:51 436.750
PCSat 11 Dec 09:53:14 09:57:21 23° 108° (ESE) 10:01:30 145.827
POPSAT HIP 1 11 Dec 09:55:29 09:58:23 18° 60° (ENE) 10:01:18 437.405
BEESAT 3 11 Dec 09:57:22 09:59:24 13° 22° (NNE) 10:01:25 437.485
Oscar 11 11 Dec 10:00:15 10:04:33 71° 286° (WNW) 10:08:50 145.826/435.025
HUMSAT D 11 Dec 10:08:44 10:12:23 31° 95° (E) 10:16:01 437.325/437.525
CUBEBUG 2 11 Dec 10:12:43 10:16:09 23° 298° (WNW) 10:19:30 437.445
TIGRISAT 11 Dec 10:16:11 10:20:41 48° 261° (W) 10:25:08 435.000
ANTELSAT 11 Dec 10:19:22 10:23:47 43° 262° (W) 10:28:10 437.575/2403.000
AAUSAT CUBESAT 2 11 Dec 10:31:29 10:34:08 17° 300° (WNW) 10:36:47 437.432
DELFI C3 11 Dec 10:36:40 10:40:39 73° 287° (WNW) 10:44:39 145.870
RS-15 11 Dec 10:38:40 10:50:07 43° 344° (NNW) 11:01:45 29.354- 29.394
BEESAT 2 11 Dec 10:39:12 10:41:35 15° 24° (NNE) 10:43:57 435.950
AIST 2 11 Dec 10:41:19 10:42:50 12° 347° (NNW) 10:44:22 435.215
UWE-3 11 Dec 10:42:55 10:45:49 18° 300° (WNW) 10:48:40 435.000/436.395/437.385
NANOSAT C BR1 11 Dec 10:44:17 10:48:22 46° 70° (ENE) 10:52:28 145.865
AO-85 11 Dec 10:46:15 10:48:32 15° 248° (WSW) 10:50:47 145.980
Cosmos 2499 11 Dec 10:51:26 10:59:52 55° 72° (ENE) 11:07:39 435.465 / 435.565
HO-68 11 Dec 10:54:49 10:59:41 20° 314° (NW) 11:04:34 435.675
QB50P2 11 Dec 10:55:54 11:00:10 69° 73° (ENE) 11:04:26 145.880/145.840
POLYITAN 1 11 Dec 10:56:16 11:00:31 65° 73° (ENE) 11:04:47 437.675
DUCHIFAT 1 11 Dec 11:03:09 11:07:23 66° 73° (ENE) 11:11:36 145.980
QB50P1 11 Dec 11:07:16 11:11:33 83° 74° (ENE) 11:15:52 145.935-145.965
ZACube-1 11 Dec 11:10:42 11:13:09 15° 302° (WNW) 11:15:35 437.345
CUBEBUG 1 11 Dec 11:14:47 11:17:36 16° 89° (E) 11:20:24 437.445
FUNcube-1 11 Dec 11:14:55 11:17:18 15° 302° (WNW) 11:19:39 145.935
JAS-2 11 Dec 11:16:49 11:22:48 61° 258° (WSW) 11:28:13 435.910
ESTCUBE 1 11 Dec 11:22:54 11:26:54 30° 95° (E) 11:30:53 437.505/2401.250
Oscar 19 11 Dec 11:26:12 11:29:43 19° 56° (NE) 11:33:15 437.125/150
UNISAT 6 11 Dec 11:28:36 11:29:55 11° 274° (W) 11:31:14 437.425
GONETS M04 11 Dec 11:28:50 11:37:36 77° 78° (ENE) 11:46:22
POPSAT HIP 1 11 Dec 11:29:31 11:33:45 61° 259° (W) 11:38:01 437.405
SPROUT 11 Dec 11:31:09 11:31:58 10° 86° (E) 11:32:48 437.525
BEESAT 3 11 Dec 11:34:09 11:38:00 44° 44° (NE) 11:41:49 437.485
PCSat 11 Dec 11:34:51 11:40:15 71° 308° (NW) 11:45:42 145.827
BUGSAT 1 11 Dec 11:35:27 11:39:38 58° 71° (ENE) 11:43:49 437.445
DANDE 11 Dec 11:36:05 11:36:46 10° 292° (WNW) 11:37:25 436.750
Oscar 11 11 Dec 11:39:01 11:39:53 11° 306° (NW) 11:40:46 145.826/435.025
VELOX 1 11 Dec 11:40:53 11:44:11 20° 91° (E) 11:47:27 145.980
HUMSAT D 11 Dec 11:44:26 11:47:58 29° 294° (WNW) 11:51:28 437.325/437.525
Gurwin Techsat 1B 11 Dec 12:09:44 12:13:55 24° 59° (ENE) 12:18:06 435.225
BEESAT 2 11 Dec 12:16:16 12:20:15 53° 46° (NE) 12:24:12 435.950
NANOSAT C BR1 11 Dec 12:21:04 12:24:19 21° 268° (W) 12:27:35 145.865
AIST 2 11 Dec 12:21:46 12:23:10 11° 12° (NNE) 12:24:34 435.215
QB50P2 11 Dec 12:34:02 12:36:25 15° 271° (W) 12:38:50 145.880/145.840
POLYITAN 1 11 Dec 12:34:12 12:36:45 15° 271° (W) 12:39:18 437.675
AO-7 11 Dec 12:38:02 12:43:57 22° 41° (NE) 12:49:53 29.400- 29.500
AISAT 11 Dec 12:39:59 12:44:29 74° 103° (ESE) 12:48:56 437.250
DUCHIFAT 1 11 Dec 12:41:02 12:43:30 15° 271° (W) 12:45:59 145.980
Cosmos 2499 11 Dec 12:45:01 12:52:44 40° 275° (W) 12:59:56 435.465 / 435.565
QB50P1 11 Dec 12:46:14 12:47:54 12° 273° (W) 12:49:35 145.935-145.965
CUBEBUG 1 11 Dec 12:49:54 12:54:19 65° 288° (WNW) 12:58:42 437.445
RS-15 11 Dec 12:54:37 13:06:18 44° 18° (NNE) 13:17:53 29.354- 29.394
50 SAT 11 Dec 12:59:10 13:02:45 77° 285° (WNW) 13:06:19 437.505
ESTCUBE 1 11 Dec 12:59:37 13:03:45 36° 293° (WNW) 13:07:53 437.505/2401.250
Oscar 19 11 Dec 13:03:18 13:08:27 80° 256° (WSW) 13:13:39 437.125/150
SPROUT 11 Dec 13:04:16 13:08:35 87° 109° (ESE) 13:12:52 437.525
UKube-1 11 Dec 13:04:28 13:08:43 51° 101° (E) 13:12:57 .
DX 1 11 Dec 13:09:23 13:13:49 76° 104° (ESE) 13:18:12 434.975-435.025
BEESAT 3 11 Dec 13:12:06 13:15:27 26° 243° (WSW) 13:18:47 437.485
BUGSAT 1 11 Dec 13:12:34 13:15:21 17° 270° (W) 13:18:10 437.445
VELOX 1 11 Dec 13:16:35 13:20:57 53° 290° (WNW) 13:25:18 145.980
PCSat 11 Dec 13:20:32 13:24:38 21° 331° (NNW) 13:28:44 145.827
GONETS M04 11 Dec 13:26:36 13:33:35 28° 281° (W) 13:40:35
SWISSCUBE 11 Dec 13:42:53 13:44:07 11° 85° (E) 13:45:21 437.505
ITAMSAT 1 11 Dec 13:45:29 13:50:15 37° 64° (ENE) 13:55:00 435.822/435.867
BEESAT 11 Dec 13:46:31 13:47:28 11° 85° (E) 13:48:26 436.000
Gurwin Techsat 1B 11 Dec 13:48:11 13:53:28 63° 258° (WSW) 13:58:46 435.225
BEESAT 2 11 Dec 13:54:38 13:57:45 22° 245° (WSW) 14:00:51 435.950
AIST 2 11 Dec 13:59:26 14:03:02 26° 35° (NE) 14:06:39 435.215
TISAT 1 11 Dec 14:04:17 14:08:31 66° 102° (ESE) 14:12:41 437.305
ITUPSAT 1 11 Dec 14:16:15 14:19:46 20° 91° (E) 14:23:16 437.325
AISAT 11 Dec 14:17:36 14:20:25 17° 302° (WNW) 14:23:13 437.250
M-CUBED/EXP-1 PRIME 11 Dec 14:19:55 14:22:41 16° 93° (E) 14:25:22 437.505
AO-7 11 Dec 14:27:08 14:35:21 69° 64° (ENE) 14:43:38 29.400- 29.500
CUBEBUG 1 11 Dec 14:29:06 14:29:45 10° 307° (NW) 14:30:23 437.445
ISS 11 Dec 14:36:27 14:39:01 21° 142° (SE) 14:41:36 145.825
UKube-1 11 Dec 14:41:10 14:44:27 21° 299° (WNW) 14:47:42 .
SPROUT 11 Dec 14:41:47 14:43:53 13° 303° (WNW) 14:45:58 437.525
Oscar 19 11 Dec 14:46:34 14:48:38 12° 275° (W) 14:50:42 437.125/150
DX 1 11 Dec 14:46:48 14:49:28 16° 303° (WNW) 14:52:07 434.975-435.025
PCSat 11 Dec 15:07:59 15:10:11 12° 357° (N) 15:12:25 145.827
RS-15 11 Dec 15:08:20 15:20:51 81° 48° (NE) 15:33:00 29.354- 29.394
SWISSCUBE 11 Dec 15:17:56 15:22:42 79° 103° (ESE) 15:27:28 437.505
BEESAT 11 Dec 15:21:17 15:26:05 77° 105° (ESE) 15:30:50 436.000
ITAMSAT 1 11 Dec 15:24:54 15:29:43 37° 263° (W) 15:34:32 435.822/435.867
O/OREOS (USA 219) 11 Dec 15:26:46 15:31:17 66° 113° (ESE) 15:35:47 437.305
MOZHAYETS 4 11 Dec 15:32:45 15:36:47 30° 95° (E) 15:40:47
Cosmos 2491 11 Dec 15:34:27 15:40:17 19° 51° (NE) 15:46:06 435.465 / 435.565
HORYU 2 11 Dec 15:35:19 15:38:27 19° 59° (ENE) 15:41:35 437.375
AUBIESAT-1 11 Dec 15:35:23 15:39:57 63° 107° (ESE) 15:44:15 437.475
AIST 2 11 Dec 15:37:39 15:41:50 60° 236° (SW) 15:45:59 435.215
TISAT 1 11 Dec 15:41:00 15:43:41 17° 301° (WNW) 15:46:22 437.305
M-CUBED/EXP-1 PRIME 11 Dec 15:53:00 15:57:42 76° 292° (WNW) 16:02:08 437.505
ITUPSAT 1 11 Dec 15:53:17 15:57:58 58° 290° (WNW) 16:02:38 437.325
BRITE-PL 11 Dec 15:55:24 15:59:31 34° 64° (ENE) 16:03:56 437.365/2234.400
CUTE-I 11 Dec 16:06:02 16:09:17 17° 53° (NE) 16:12:33 437.470
NOAA 15 11 Dec 16:08:08 16:11:36 18° 55° (NE) 16:15:04 137.62
ISS 11 Dec 16:11:53 16:15:11 85° 161° (SSE) 16:18:30 145.825
DOVE 4 11 Dec 16:17:52 16:20:45 15° 54° (NE) 16:23:40 437.250
AO-7 11 Dec 16:21:24 16:28:43 33° 265° (W) 16:36:06 29.400- 29.500
LilacSat-2 11 Dec 16:22:51 16:24:43 13° 60° (ENE) 16:26:35 437.200
Cubesat XI-IV 11 Dec 16:32:42 16:37:01 25° 59° (ENE) 16:41:19 437.490
GOMX 1 11 Dec 16:36:57 16:41:27 38° 66° (ENE) 16:46:15 467.674
STARS 11 Dec 16:42:56 16:46:50 29° 95° (E) 16:50:42 437.465
PCSat 11 Dec 16:52:17 16:55:54 18° 24° (NNE) 16:59:31 145.827
KKS-1 11 Dec 16:54:08 16:58:39 75° 103° (ESE) 17:03:07 437.445
SWISSCUBE 11 Dec 16:56:53 16:59:56 17° 303° (WNW) 17:02:58 437.505
BEESAT 11 Dec 17:00:12 17:03:19 18° 303° (WNW) 17:06:25 436.000
NOAA 18 11 Dec 17:06:02 17:10:55 32° 61° (ENE) 17:15:48 137.9125
O/OREOS (USA 219) 11 Dec 17:07:41 17:11:08 21° 313° (NW) 17:14:36 437.305
MOZHAYETS 4 11 Dec 17:09:49 17:13:59 36° 293° (WNW) 17:18:10
HORYU 2 11 Dec 17:10:08 17:14:35 63° 258° (WSW) 17:19:02 437.375
AUBIESAT-1 11 Dec 17:10:29 17:13:54 21° 307° (NW) 17:17:14 437.475
RS-15 11 Dec 17:21:34 17:32:19 38° 254° (WSW) 17:42:49 29.354- 29.394
M-CUBED/EXP-1 PRIME 11 Dec 17:28:53 17:31:22 14° 312° (NW) 17:33:49 437.505
CUBESAT XI-V 11 Dec 17:28:56 17:33:36 66° 101° (E) 17:38:17 437.345
Cosmos 2491 11 Dec 17:30:21 17:39:05 69° 77° (ENE) 17:47:46 435.465 / 435.565
BRITE-PL 11 Dec 17:33:53 17:38:00 34° 266° (W) 17:42:27 437.365/2234.400
ITUPSAT 1 11 Dec 17:34:09 17:34:50 10° 310° (NW) 17:35:32 437.325
CUTE-I 11 Dec 17:43:12 17:48:35 83° 74° (ENE) 17:53:58 437.470
NOAA 15 11 Dec 17:45:28 17:50:44 86° 255° (WSW) 17:56:01 137.62
ISS 11 Dec 17:48:34 17:51:50 58° 0° (N) 17:55:07 145.825
HO-68 11 Dec 17:52:07 17:58:23 34° 56° (NE) 18:04:41 435.675
DOVE 4 11 Dec 17:52:33 17:57:34 79° 75° (ENE) 18:02:50 437.250
LilacSat-2 11 Dec 17:54:42 17:58:31 70° 259° (WSW) 18:02:21 437.200
YUBILEINY 11 Dec 18:00:55 18:08:43 39° 84° (E) 18:16:35 435.215
CUBEBUG 2 11 Dec 18:04:46 18:05:56 11° 54° (NE) 18:07:06 437.445
Cubesat XI-IV 11 Dec 18:11:24 18:16:43 61° 258° (WSW) 18:22:04 437.490
GOMX 1 11 Dec 18:15:14 18:19:35 33° 267° (W) 18:24:15 467.674
STARS 11 Dec 18:19:12 18:23:14 35° 294° (WNW) 18:27:14 437.465
CUTE 1.7 + AOD 2 11 Dec 18:21:39 18:25:08 26° 65° (ENE) 18:28:38 437.475
CINEMA 3 11 Dec 18:25:11 18:30:00 49° 69° (ENE) 18:34:50 145.822/145.860
KKS-1 11 Dec 18:31:53 18:34:41 17° 302° (WNW) 18:37:28 437.445
CUSAT 1 11 Dec 18:32:32 18:35:18 18° 69° (ENE) 18:38:33 437.405
UWE-3 11 Dec 18:32:47 18:34:48 13° 56° (ENE) 18:36:48 435.000/436.395/437.385
PCSat 11 Dec 18:35:16 18:40:35 51° 47° (NE) 18:45:52 145.827
CANX-2 11 Dec 18:40:24 18:44:24 43° 70° (ENE) 18:48:24 2200.000
NOAA 18 11 Dec 18:46:03 18:51:24 48° 260° (W) 18:56:48 137.9125
STRAND 1 11 Dec 18:47:12 18:50:44 18° 90° (E) 18:54:14 437.568
COMPASS 1 11 Dec 18:51:17 18:54:39 25° 64° (ENE) 18:58:01 437.405
SEEDS 11 Dec 18:52:38 18:56:25 35° 68° (ENE) 19:00:15 437.485
ZACube-1 11 Dec 18:59:01 19:01:20 14° 58° (ENE) 19:03:36 437.345
Cosmos 2504 11 Dec 18:59:27 19:07:28 45° 86° (E) 19:15:44 435.465 / 435.565
FUNcube-1 11 Dec 19:02:57 19:05:16 14° 58° (ENE) 19:07:32 145.935
CUBESAT XI-V 11 Dec 19:07:15 19:10:33 19° 300° (WNW) 19:13:51 437.345
SO-50 11 Dec 19:18:51 19:23:32 60° 125° (SE) 19:28:10 436.795
Oscar 11 11 Dec 19:24:16 19:27:23 20° 61° (ENE) 19:30:31 145.826/435.025
ISS 11 Dec 19:25:09 19:28:29 81° 196° (SSW) 19:31:47 145.825
AIST 1 11 Dec 19:25:37 19:29:54 66° 96° (E) 19:34:16
CUTE-I 11 Dec 19:25:59 19:29:19 16° 272° (W) 19:32:38 437.470
Cosmos 2491 11 Dec 19:27:57 19:35:16 32° 279° (W) 19:42:37 435.465 / 435.565
NOAA 15 11 Dec 19:28:40 19:31:18 14° 274° (W) 19:33:56 137.62
DOVE 4 11 Dec 19:32:42 19:35:55 17° 274° (W) 19:39:13 437.250
CUBEBUG 2 11 Dec 19:37:02 19:41:42 64° 73° (ENE) 19:46:18 437.445
HO-68 11 Dec 19:38:39 19:45:44 63° 257° (WSW) 19:52:55 435.675
AAUSAT CUBESAT 2 11 Dec 19:48:56 19:53:01 71° 74° (ENE) 19:57:08 437.432
DELFI C3 11 Dec 19:53:38 19:55:42 14° 59° (ENE) 19:57:46 145.870
YUBILEINY 11 Dec 19:56:39 20:05:12 58° 287° (WNW) 20:13:53 435.215
CUTE 1.7 + AOD 2 11 Dec 19:56:56 20:00:50 37° 263° (W) 20:04:46 437.475
CINEMA 3 11 Dec 20:03:09 20:07:20 26° 268° (W) 20:11:34 145.822/145.860
UWE-3 11 Dec 20:05:57 20:10:34 81° 73° (ENE) 20:15:06 435.000/436.395/437.385
CUSAT 1 11 Dec 20:13:23 20:17:17 55° 261° (W) 20:22:23 437.405
CANX-2 11 Dec 20:17:13 20:20:28 21° 268° (W) 20:23:43 2200.000
PCSat 11 Dec 20:19:00 20:23:49 33° 247° (WSW) 20:28:36 145.827
DANDE 11 Dec 20:21:12 20:24:05 43° 76° (ENE) 20:27:39 436.750
STRAND 1 11 Dec 20:25:20 20:30:26 70° 289° (WNW) 20:35:29 437.568
COMPASS 1 11 Dec 20:26:12 20:30:03 37° 263° (W) 20:33:55 437.405
SEEDS 11 Dec 20:28:42 20:32:12 26° 266° (W) 20:35:43 437.485
ZACube-1 11 Dec 20:32:30 20:37:01 88° 260° (W) 20:41:26 437.345
FUNcube-1 11 Dec 20:36:25 20:40:54 87° 252° (WSW) 20:45:19 145.935
PRISM 11 Dec 20:41:41 20:44:12 15° 90° (E) 20:46:42 437.425
Cosmos 2504 11 Dec 20:52:23 21:00:46 52° 289° (WNW) 21:09:27 435.465 / 435.565
Oscar 11 11 Dec 20:58:57 21:03:10 54° 260° (W) 21:07:25 145.826/435.025
SO-50 11 Dec 21:00:08 21:04:19 30° 325° (NW) 21:08:28 436.795
ISS 11 Dec 21:02:07 21:04:37 20° 219° (SW) 21:07:06 145.825
HUMSAT D 11 Dec 21:03:47 21:07:38 38° 69° (ENE) 21:11:29 437.325/437.525
AIST 1 11 Dec 21:05:18 21:08:00 16° 296° (WNW) 21:10:45
CUBEBUG 2 11 Dec 21:15:30 21:18:43 18° 270° (W) 21:21:54 437.445
DELFI C3 11 Dec 21:26:05 21:30:00 70° 258° (WSW) 21:33:58 145.870
AAUSAT CUBESAT 2 11 Dec 21:27:04 21:28:59 13° 272° (W) 21:30:55 437.432
HO-68 11 Dec 21:31:57 21:34:57 13° 278° (W) 21:37:58 435.675
UNISAT 6 11 Dec 21:36:33 21:39:05 15° 88° (E) 21:41:34 437.425
UWE-3 11 Dec 21:45:14 21:47:34 14° 272° (W) 21:49:54 435.000/436.395/437.385
YUBILEINY 11 Dec 21:59:24 22:04:23 16° 313° (NW) 22:09:26 435.215
TIGRISAT 11 Dec 22:03:40 22:07:18 25° 93° (E) 22:10:52 435.000
DANDE 11 Dec 22:05:38 22:06:38 11° 267° (W) 22:07:40 436.750
STRAND 1 11 Dec 22:06:22 22:08:44 13° 308° (NW) 22:11:06 437.568
ANTELSAT 11 Dec 22:06:46 22:10:34 28° 94° (E) 22:14:16 437.575/2403.000
AISAT 11 Dec 22:06:55 22:09:41 16° 58° (ENE) 22:12:28 437.250
ZACube-1 11 Dec 22:12:32 22:13:56 11° 274° (W) 22:15:19 437.345
CUBEBUG 1 11 Dec 22:14:34 22:18:04 24° 62° (ENE) 22:21:37 437.445
PRISM 11 Dec 22:15:45 22:19:54 62° 288° (WNW) 22:24:01 437.425
FUNcube-1 11 Dec 22:16:33 22:17:47 11° 274° (W) 22:19:02 145.935
JAS-2 11 Dec 22:22:55 22:24:35 11° 86° (E) 22:26:16 435.910
ESTCUBE 1 11 Dec 22:26:20 22:30:36 45° 69° (ENE) 22:34:54 437.505/2401.250
SPROUT 11 Dec 22:27:45 22:30:22 16° 59° (ENE) 22:32:59 437.525
UKube-1 11 Dec 22:30:19 22:31:47 12° 54° (NE) 22:33:15 .
DX 1 11 Dec 22:34:47 22:37:29 16° 58° (ENE) 22:40:12 434.975-435.025
HUMSAT D 11 Dec 22:39:59 22:43:22 24° 267° (W) 22:46:45 437.325/437.525
VELOX 1 11 Dec 22:41:59 22:45:50 30° 65° (ENE) 22:49:44 145.980
GONETS M04 11 Dec 22:42:52 22:48:10 18° 73° (ENE) 22:53:28
SO-50 11 Dec 22:43:46 22:46:13 14° 349° (NNW) 22:48:38 436.795
Cosmos 2504 11 Dec 22:52:01 22:56:43 15° 315° (NW) 23:01:29 435.465 / 435.565
PHONESAT 2.4 11 Dec 23:07:48 23:08:11 10° 169° (S) 23:08:34 2401.200-2431.200
POPSAT HIP 1 11 Dec 23:10:53 23:13:34 16° 90° (E) 23:16:14 437.405
UNISAT 6 11 Dec 23:11:56 23:16:18 66° 287° (WNW) 23:20:33 437.425
TISAT 1 11 Dec 23:27:07 23:28:53 12° 56° (NE) 23:30:39 437.305
Cosmos 2499 11 Dec 23:32:20 23:40:16 40° 85° (E) 23:48:18 435.465 / 435.565
50 SAT 11 Dec 23:38:07 23:41:37 85° 75° (ENE) 23:45:10 437.505
TIGRISAT 11 Dec 23:40:04 23:44:08 38° 292° (WNW) 23:48:06 435.000
AISAT 11 Dec 23:41:10 23:45:36 75° 256° (WSW) 23:50:06 437.250
ANTELSAT 11 Dec 23:43:22 23:47:20 34° 294° (WNW) 23:51:13 437.575/2403.000
CUBEBUG 1 11 Dec 23:49:55 23:54:07 45° 261° (W) 23:58:23 437.445
O/OREOS (USA 219) 11 Dec 23:53:23 23:57:36 38° 55° (NE) 00:01:46 437.305
NANOSAT C BR1 11 Dec 23:59:44 00:03:49 45° 99° (E) 00:07:51 145.865
SPROUT 12 Dec 00:01:29 00:05:47 72° 257° (WSW) 00:10:07 437.525
UKube-1 12 Dec 00:02:45 00:07:04 76° 73° (ENE) 00:11:25 .
ESTCUBE 1 12 Dec 00:04:03 00:07:37 23° 267° (W) 00:11:13 437.505/2401.250
JAS-2 12 Dec 00:05:20 00:10:34 77° 104° (ESE) 00:16:08 435.910
DX 1 12 Dec 00:08:48 00:13:10 73° 258° (WSW) 00:17:34 434.975-435.025
QB50P2 12 Dec 00:12:05 00:16:20 70° 102° (ESE) 00:20:32 145.880/145.840
POLYITAN 1 12 Dec 00:12:26 00:16:40 67° 102° (ESE) 00:20:51 437.675
VELOX 1 12 Dec 00:18:10 00:22:14 35° 263° (W) 00:26:20 145.980
DUCHIFAT 1 12 Dec 00:18:22 00:22:35 66° 102° (ESE) 00:26:44 145.980
QB50P1 12 Dec 00:23:15 00:27:32 85° 106° (ESE) 00:31:44 145.935-145.965
SO-50 12 Dec 00:25:59 00:28:35 15° 14° (NNE) 00:31:07 436.795
GONETS M04 12 Dec 00:34:47 00:43:28 75° 95° (E) 00:52:09
PHONESAT 2.4 12 Dec 00:41:34 00:42:36 12° 186° (S) 00:43:39 2401.200-2431.200
POPSAT HIP 1 12 Dec 00:45:33 00:49:45 59° 288° (WNW) 00:53:53 437.405
BUGSAT 1 12 Dec 00:48:09 00:52:17 53° 100° (E) 00:56:18 437.445
AUBIESAT-1 12 Dec 00:51:18 00:54:49 23° 55° (NE) 00:58:26 437.475
UNISAT 6 12 Dec 00:51:49 00:52:08 10° 307° (NW) 00:52:29 437.425
SWISSCUBE 12 Dec 00:52:10 00:55:51 23° 60° (ENE) 00:59:33 437.505
BEESAT 12 Dec 00:55:32 00:59:11 22° 60° (ENE) 01:02:50 436.000
TISAT 1 12 Dec 00:59:35 01:03:50 85° 74° (ENE) 01:08:08 437.305
AO-85 12 Dec 01:02:14 01:06:55 52° 123° (ESE) 01:11:16 145.980
M-CUBED/EXP-1 PRIME 12 Dec 01:08:37 01:12:40 37° 60° (ENE) 01:16:55 437.505
Oscar 19 12 Dec 01:10:46 01:15:08 26° 93° (E) 01:19:28 437.125/150
Cosmos 2499 12 Dec 01:24:29 01:33:07 59° 287° (WNW) 01:41:54 435.465 / 435.565
ITUPSAT 1 12 Dec 01:26:46 01:31:11 38° 66° (ENE) 01:35:35 437.325
O/OREOS (USA 219) 12 Dec 01:33:00 01:36:54 30° 254° (WSW) 01:40:46 437.305
NANOSAT C BR1 12 Dec 01:36:01 01:39:17 22° 298° (WNW) 01:42:32 145.865
UKube-1 12 Dec 01:41:31 01:43:39 13° 272° (W) 01:45:47 .
QB50P2 12 Dec 01:49:04 01:51:38 16° 301° (WNW) 01:54:11 145.880/145.840
POLYITAN 1 12 Dec 01:49:20 01:51:59 16° 301° (WNW) 01:54:38 437.675
JAS-2 12 Dec 01:51:38 01:55:12 19° 303° (WNW) 01:58:52 435.910
DUCHIFAT 1 12 Dec 01:55:09 01:57:48 17° 301° (WNW) 02:00:27 145.980
Gurwin Techsat 1B 12 Dec 01:59:58 02:04:55 37° 96° (E) 02:09:49 435.225
QB50P1 12 Dec 02:00:35 02:02:41 14° 303° (WNW) 02:04:46 145.935-145.965
SO-50 12 Dec 02:06:08 02:10:21 35° 37° (NE) 02:14:30 436.795
KKS-1 12 Dec 02:21:35 02:24:30 17° 58° (ENE) 02:27:26 437.445
BUGSAT 1 12 Dec 02:24:19 02:27:17 19° 299° (WNW) 02:30:13 437.445
AUBIESAT-1 12 Dec 02:24:34 02:28:51 56° 254° (WSW) 02:33:24 437.475
AO-7 12 Dec 02:25:39 02:30:13 15° 84° (E) 02:34:46 29.400- 29.500
SWISSCUBE 12 Dec 02:28:38 02:33:18 56° 259° (WSW) 02:38:01 437.505
BEESAT 12 Dec 02:31:54 02:36:36 58° 259° (WSW) 02:41:20 436.000
GONETS M04 12 Dec 02:33:46 02:41:12 31° 299° (WNW) 02:48:41
MOZHAYETS 4 12 Dec 02:38:30 02:42:53 47° 69° (ENE) 02:47:16
TISAT 1 12 Dec 02:38:36 02:40:05 12° 273° (W) 02:41:34 437.305
M-CUBED/EXP-1 PRIME 12 Dec 02:43:13 02:47:08 32° 260° (W) 02:51:17 437.505
AO-85 12 Dec 02:43:20 02:47:33 32° 322° (NW) 02:51:28 145.980
Oscar 19 12 Dec 02:49:41 02:54:44 51° 292° (WNW) 02:59:44 437.125/150
CUBESAT XI-V 12 Dec 03:01:19 03:04:05 16° 57° (ENE) 03:06:51 437.345
ITUPSAT 1 12 Dec 03:04:52 03:09:05 31° 265° (W) 03:13:19 437.325
BEESAT 3 12 Dec 03:06:43 03:09:13 17° 113° (ESE) 03:11:45 437.485
